Regional Weather Roundup
Issued by NWS

Home | Current Version | Previous Version | Graphics & Text | Print | Product List | Glossary On
Versions: 1 2 3 4 5 6 7 8 9 10 11 12 13 14 15 16 17 18 19 20 21 22 23 24 25 26 27 28 29 30 31 32 33 34 35 36 37 38 39 40 41 42 43 44 45 46 47 48 49 50
220
ASUS43 KFSD 260602
RWRSD

WEATHER ROUNDUP FOR SOUTH DAKOTA
NATIONAL WEATHER SERVICE SIOUX FALLS SD
1200 AM CST SUN FEB 26 2017

NOTE: "FAIR" INDICATES FEW OR NO CLOUDS BELOW 12,000 FEET WITH NO
SIGNIFICANT WEATHER AND/OR OBSTRUCTIONS TO VISIBILITY.


SDZ001>005-009-010-012>017-260700-
NORTHWEST AND NORTH CENTRAL SOUTH DAKOTA

CITY           SKY/WX    TMP DP  RH WIND       PRES   REMARKS
BUFFALO          N/A     17  13  84 W8        29.60S WCI   7
FAITH            N/A     23  20  88 W12       29.69S WCI  12
MOBRIDGE       CLEAR     23  18  81 S3        29.66F
$$

SDZ012>016-024>037-041>051-057-063-072>074-260700-
SOUTHWEST AND SOUTH CENTRAL SOUTH DAKOTA

CITY           SKY/WX    TMP DP  RH WIND       PRES   REMARKS
RAPID CTY ARPT PTCLDY    15  11  83 NW6       29.71F WCI   6
PIERRE         CLOUDY    26  20  77 W6        29.72F WCI  19
CUSTER         CLOUDY    11   6  81 W3        29.64R
ELLSWORTH AFB  CLEAR     17  14  86 W8        29.70F WCI   7
PHILIP         CLOUDY    20  17  88 W8        29.74S WCI  10
PINE RIDGE     CLEAR     14   6  70 CALM      29.76R
SPEARFISH      FAIR      21  10  63 W10       29.68S WCI  10
WINNER         FAIR      24  15  68 SW10      29.75F WCI  14
$$

SDZ004>011-016>023-039-040-260700-
NORTHEAST SOUTH DAKOTA

CITY           SKY/WX    TMP DP  RH WIND       PRES   REMARKS
ABERDEEN       CLOUDY    24  22  91 S7        29.71F WCI  16
WATERTOWN      PTCLDY    23  21  92 SW13      29.70F WCI  11
BROOKINGS      CLEAR     23  19  85 SW9       29.73F WCI  13
SISSETON         N/A     20  19  96 W6        29.71F WCI  12
$$

SDZ017-020-022-023-036>040-048>070-260700-
SOUTHEAST SOUTH DAKOTA

CITY           SKY/WX    TMP DP  RH WIND       PRES   REMARKS
SIOUX FALLS    PTCLDY    23  18  81 SW5       29.78F WCI  17
HURON          CLEAR     23  23 100 MISG      29.75F
CHAMBERLAIN    CLOUDY    28  25  87 SW6       29.75S WCI  22
MITCHELL       MOCLDY    26  21  81 SW8       29.77F WCI  18
YANKTON        PTCLDY    19  18  93 NE3       29.80F
$$

ABBREVIATIONS USED IN REMARKS
   TC - TEMPERATURE IN CELSIUS
  WCI - WIND CHILL INDEX
   HX - HEAT INDEX
  VSB - VISIBILITY





USA.gov is the U.S. government's official web portal to all federal, state and local government web resources and services.